sat.trackr.live / text

‹ back to catalog

STARLINK-3699

NORAD 51966 · 2022-025L

PAYLOAD ACTIVE UNKNOWN

§ Identity

Operator
Country
US
Launch date
2022-03-09
Launch site
AFETR
Launch vehicle
Mass (kg)
RCS (m²)

Purposes: comms

External: N2YO · Heavens-Above · Gunter

§ Orbital elements

Epoch: 2026-05-24T23:17:50.567424Z

Period
94.01 min
Inclination
53.1606°
Eccentricity
0.0001277
Mean motion
15.31697357 rev/d
Perigee alt
469.9 km
Apogee alt
471.6 km
Semi-major
6,848.9 km
B*
7.5245e-5
RAAN
42.2004°
Arg perigee
83.0215°
Mean anomaly
277.0931°
Rev number
23,251

§ Raw data

STARLINK-36991 51966U 22025L   26144.97072416  .00001970  00000+0  75245-4 0  99942 51966  53.1606  42.2004 0001277  83.0215 277.0931 15.31697357232517

JSON: /api/v1/satellites/51966 · /tle

For live sub-satellite position, see the globe view (requires WebGL).

§ Visibility from observer

Set your observer location to see the next 7 days of passes ≥ 10°. The values pass through the URL so the page stays shareable.

No JS? Fill the form by hand. The geolocation button needs JavaScript.